SDG096 LIBD-LMML

Flight info

Callsign SDG096
Flight time 1h 9m
Altitude 27000
Route TOPNO Q865 CDC L137 NELDA N982 GZO
Aircraft A321/M-SDE3FGHIRWY/C

Departure

Time 2026-05-07 18:40
Airport Bari Karol Wojtyła International Airport (LIBD)

Arrival

Time 2026-05-07 19:50
Airport Malta International Airport (LMML)
Time Latitude Longitude Altitude Speed Heading
2026-05-07 18:37 41.13697 16.76460 140 ft 0 kts 23°
2026-05-07 18:38 41.13701 16.76462 140 ft 4 kts 23°
2026-05-07 18:38 41.13747 16.76540 138 ft 16 kts 59°
2026-05-07 18:38 41.13829 16.76670 134 ft 20 kts 69°
2026-05-07 18:38 41.13879 16.76855 129 ft 22 kts 71°
2026-05-07 18:39 41.13938 16.77048 125 ft 23 kts 66°
2026-05-07 18:39 41.14007 16.77259 119 ft 25 kts 68°
2026-05-07 18:39 41.14135 16.77418 110 ft 27 kts 22°
2026-05-07 18:39 41.14194 16.77295 112 ft 18 kts 250°
2026-05-07 18:40 41.14142 16.77106 119 ft 46 kts 250°
2026-05-07 18:40 41.13916 16.76321 136 ft 134 kts 254°
2026-05-07 18:40 41.13536 16.74913 560 ft 171 kts 248°
2026-05-07 18:40 41.13186 16.73684 1936 ft 135 kts 247°
2026-05-07 18:41 41.12832 16.72429 2134 ft 180 kts 246°
2026-05-07 18:41 41.12328 16.70720 2519 ft 204 kts 246°
2026-05-07 18:41 41.11827 16.68974 3122 ft 211 kts 246°
2026-05-07 18:41 41.11285 16.67095 3555 ft 227 kts 246°
2026-05-07 18:42 41.10701 16.65063 4005 ft 243 kts 246°
2026-05-07 18:42 41.10088 16.62914 4444 ft 260 kts 247°
2026-05-07 18:42 41.09432 16.60607 5060 ft 270 kts 248°
2026-05-07 18:42 41.08769 16.58292 5770 ft 275 kts 248°
2026-05-07 18:43 41.08091 16.55923 6503 ft 279 kts 248°
2026-05-07 18:43 41.07409 16.53519 7297 ft 280 kts 248°
2026-05-07 18:43 41.06725 16.51116 8013 ft 283 kts 248°
2026-05-07 18:43 41.06025 16.48664 8718 ft 287 kts 248°
2026-05-07 18:44 41.05320 16.46191 9440 ft 289 kts 248°
2026-05-07 18:44 41.04608 16.43692 10203 ft 289 kts 248°
2026-05-07 18:44 41.03896 16.41201 10726 ft 298 kts 248°
2026-05-07 18:44 41.03135 16.38550 11025 ft 314 kts 248°
2026-05-07 18:45 41.02345 16.35797 11320 ft 330 kts 248°
2026-05-07 18:45 41.01504 16.32862 11613 ft 346 kts 247°
2026-05-07 18:45 41.00632 16.29814 11889 ft 361 kts 247°
2026-05-07 18:45 40.99729 16.26668 12159 ft 376 kts 247°
2026-05-07 18:46 40.98775 16.23354 12535 ft 388 kts 247°
2026-05-07 18:46 40.97813 16.20014 13198 ft 391 kts 248°
2026-05-07 18:46 40.96646 16.16820 13868 ft 391 kts 234°
2026-05-07 18:46 40.94789 16.14231 14530 ft 392 kts 217°
2026-05-07 18:47 40.92394 16.12528 15139 ft 396 kts 200°
2026-05-07 18:47 40.89684 16.11899 15690 ft 403 kts 182°
2026-05-07 18:47 40.86881 16.12245 16257 ft 408 kts 174°
2026-05-07 18:47 40.84062 16.12771 16795 ft 412 kts 174°
2026-05-07 18:48 40.81216 16.13309 17332 ft 416 kts 174°
2026-05-07 18:48 40.78357 16.13837 17862 ft 419 kts 175°
2026-05-07 18:48 40.75460 16.14362 18372 ft 422 kts 175°
2026-05-07 18:48 40.72541 16.14882 18865 ft 425 kts 175°
2026-05-07 18:49 40.69632 16.15396 19343 ft 428 kts 175°
2026-05-07 18:49 40.66656 16.15921 19814 ft 432 kts 175°
2026-05-07 18:49 40.63685 16.16444 20265 ft 435 kts 176°
2026-05-07 18:49 40.60694 16.16934 20703 ft 437 kts 178°
2026-05-07 18:50 40.57640 16.17287 21141 ft 440 kts 179°
2026-05-07 18:50 40.54615 16.17626 21568 ft 442 kts 179°
2026-05-07 18:50 40.51564 16.17966 21982 ft 445 kts 179°
2026-05-07 18:50 40.48473 16.18310 22381 ft 448 kts 179°
2026-05-07 18:51 40.45344 16.18657 22775 ft 451 kts 179°
2026-05-07 18:51 40.42213 16.19004 23168 ft 453 kts 179°
2026-05-07 18:51 40.39087 16.19349 23551 ft 455 kts 179°
2026-05-07 18:51 40.35946 16.19696 23914 ft 458 kts 179°
2026-05-07 18:52 40.32768 16.20046 24265 ft 460 kts 179°
2026-05-07 18:52 40.29603 16.20395 24594 ft 463 kts 180°
2026-05-07 18:52 40.26363 16.20751 24903 ft 466 kts 180°
2026-05-07 18:52 40.23172 16.21103 25197 ft 469 kts 180°
2026-05-07 18:53 40.19908 16.21464 25498 ft 472 kts 180°
2026-05-07 18:53 40.16629 16.21827 25796 ft 475 kts 180°
2026-05-07 18:53 40.13321 16.22192 26140 ft 477 kts 180°
2026-05-07 18:53 40.10048 16.22555 26561 ft 476 kts 181°
2026-05-07 18:54 40.06727 16.22922 26932 ft 476 kts 181°
2026-05-07 18:54 40.03460 16.23280 26988 ft 476 kts 181°
2026-05-07 18:54 40.00167 16.23639 26999 ft 476 kts 181°
2026-05-07 18:54 39.96861 16.23998 27003 ft 476 kts 181°
2026-05-07 18:55 39.93558 16.24357 27003 ft 476 kts 181°
2026-05-07 18:55 39.90287 16.24713 27003 ft 476 kts 181°
2026-05-07 18:55 39.87001 16.25071 27004 ft 476 kts 181°
2026-05-07 18:55 39.83726 16.25428 27004 ft 476 kts 181°
2026-05-07 18:56 39.80409 16.25790 27003 ft 475 kts 181°
2026-05-07 18:56 39.77134 16.26147 27004 ft 475 kts 181°
2026-05-07 18:56 39.73828 16.26505 27004 ft 475 kts 181°
2026-05-07 18:56 39.70557 16.26860 27003 ft 475 kts 181°
2026-05-07 18:57 39.67276 16.27216 27003 ft 475 kts 181°
2026-05-07 18:57 39.63961 16.27576 27004 ft 475 kts 181°
2026-05-07 18:57 39.60682 16.27931 27007 ft 474 kts 181°
2026-05-07 18:57 39.57426 16.28282 27014 ft 474 kts 181°
2026-05-07 18:58 39.54128 16.28637 27020 ft 474 kts 181°
2026-05-07 18:58 39.50864 16.28988 27030 ft 474 kts 181°
2026-05-07 18:58 39.47575 16.29341 27041 ft 474 kts 181°
2026-05-07 18:58 39.44295 16.29693 27045 ft 473 kts 181°
2026-05-07 18:59 39.41002 16.30047 27049 ft 473 kts 181°
2026-05-07 18:59 39.37758 16.30395 27053 ft 473 kts 181°
2026-05-07 18:59 39.34491 16.30745 27054 ft 473 kts 181°
2026-05-07 18:59 39.31183 16.31098 27056 ft 473 kts 181°
2026-05-07 19:00 39.27915 16.31447 27056 ft 472 kts 181°
2026-05-07 19:00 39.24677 16.31793 27056 ft 472 kts 181°
2026-05-07 19:00 39.21389 16.32143 27057 ft 472 kts 181°
2026-05-07 19:00 39.18126 16.32492 27057 ft 471 kts 181°
2026-05-07 19:01 39.14877 16.32838 27057 ft 471 kts 181°
2026-05-07 19:01 39.11657 16.33183 27057 ft 471 kts 181°
2026-05-07 19:01 39.08385 16.33531 27056 ft 471 kts 181°
2026-05-07 19:01 39.05108 16.33879 27057 ft 471 kts 181°
2026-05-07 19:02 39.01891 16.34221 27055 ft 470 kts 181°
2026-05-07 19:02 38.98608 16.34570 27053 ft 470 kts 181°
2026-05-07 19:02 38.95390 16.34912 27045 ft 469 kts 181°
2026-05-07 19:02 38.92150 16.35255 27033 ft 468 kts 181°
2026-05-07 19:03 38.88885 16.35600 27018 ft 468 kts 181°
2026-05-07 19:03 38.85666 16.35939 27002 ft 468 kts 181°
2026-05-07 19:03 38.82827 16.36239 26988 ft 467 kts 181°
2026-05-07 19:03 38.79614 16.36488 26964 ft 462 kts 187°
2026-05-07 19:04 38.76499 16.35936 26961 ft 450 kts 200°
2026-05-07 19:04 38.73610 16.34470 26959 ft 441 kts 213°
2026-05-07 19:04 38.71155 16.32299 26965 ft 435 kts 223°
2026-05-07 19:04 38.68806 16.29799 26958 ft 433 kts 223°
2026-05-07 19:05 38.66523 16.27331 26954 ft 433 kts 224°
2026-05-07 19:05 38.64234 16.24855 26949 ft 433 kts 223°
2026-05-07 19:05 38.61920 16.22357 26949 ft 434 kts 223°
2026-05-07 19:05 38.59617 16.19881 26949 ft 433 kts 223°
2026-05-07 19:06 38.57336 16.17434 26948 ft 433 kts 223°
2026-05-07 19:06 38.52727 16.12500 26948 ft 432 kts 223°
2026-05-07 19:06 38.50440 16.10057 26948 ft 432 kts 223°
2026-05-07 19:07 38.48157 16.07621 26948 ft 432 kts 223°
2026-05-07 19:07 38.45859 16.05170 26948 ft 432 kts 223°
2026-05-07 19:07 38.43549 16.02708 26947 ft 432 kts 223°
2026-05-07 19:07 38.41261 16.00270 26945 ft 432 kts 223°
2026-05-07 19:08 38.38977 15.97837 26944 ft 432 kts 223°
2026-05-07 19:08 38.36672 15.95382 26940 ft 431 kts 223°
2026-05-07 19:08 38.34376 15.92938 26936 ft 431 kts 223°
2026-05-07 19:08 38.32077 15.90493 26931 ft 431 kts 223°
2026-05-07 19:09 38.29774 15.88045 26925 ft 431 kts 223°
2026-05-07 19:09 38.27473 15.85600 26918 ft 431 kts 223°
2026-05-07 19:09 38.25179 15.83166 26912 ft 431 kts 223°
2026-05-07 19:09 38.22870 15.80716 26907 ft 432 kts 223°
2026-05-07 19:10 38.20545 15.78254 26902 ft 432 kts 223°
2026-05-07 19:10 38.18234 15.75806 26899 ft 432 kts 223°
2026-05-07 19:10 38.15958 15.73397 26897 ft 432 kts 223°
2026-05-07 19:10 38.13659 15.70966 26895 ft 432 kts 223°
2026-05-07 19:11 38.11348 15.68526 26894 ft 432 kts 223°
2026-05-07 19:11 38.09037 15.66089 26895 ft 431 kts 223°
2026-05-07 19:11 38.06753 15.63669 26893 ft 431 kts 224°
2026-05-07 19:11 38.04489 15.61202 26893 ft 430 kts 224°
2026-05-07 19:12 38.02204 15.58690 26893 ft 430 kts 224°
2026-05-07 19:12 37.99954 15.56213 26893 ft 430 kts 224°
2026-05-07 19:12 37.97691 15.53727 26893 ft 430 kts 224°
2026-05-07 19:12 37.95446 15.51267 26893 ft 430 kts 224°
2026-05-07 19:13 37.93193 15.48803 26893 ft 430 kts 224°
2026-05-07 19:13 37.90938 15.46335 26893 ft 430 kts 224°
2026-05-07 19:13 37.88674 15.43866 26895 ft 430 kts 224°
2026-05-07 19:13 37.86393 15.41393 26895 ft 430 kts 224°
2026-05-07 19:14 37.84134 15.38941 26897 ft 429 kts 224°
2026-05-07 19:14 37.81889 15.36500 26899 ft 429 kts 224°
2026-05-07 19:14 37.79602 15.34012 26905 ft 429 kts 224°
2026-05-07 19:14 37.77357 15.31561 26906 ft 429 kts 224°
2026-05-07 19:15 37.75090 15.29085 26909 ft 429 kts 224°
2026-05-07 19:15 37.72860 15.26651 26912 ft 429 kts 224°
2026-05-07 19:15 37.70596 15.24182 26914 ft 429 kts 224°
2026-05-07 19:15 37.68338 15.21722 26916 ft 428 kts 224°
2026-05-07 19:16 37.66068 15.19250 26917 ft 428 kts 224°
2026-05-07 19:16 37.63818 15.16802 26917 ft 428 kts 224°
2026-05-07 19:16 37.61567 15.14354 26917 ft 428 kts 224°
2026-05-07 19:16 37.59295 15.11885 26917 ft 428 kts 224°
2026-05-07 19:17 37.57050 15.09447 26918 ft 428 kts 224°
2026-05-07 19:17 37.54816 15.07023 26918 ft 428 kts 224°
2026-05-07 19:17 37.52567 15.04584 26919 ft 428 kts 224°
2026-05-07 19:17 37.50287 15.02115 26918 ft 427 kts 224°
2026-05-07 19:18 37.48059 14.99704 26918 ft 427 kts 224°
2026-05-07 19:18 37.45780 14.97268 26917 ft 428 kts 223°
2026-05-07 19:18 37.43453 14.94961 26918 ft 429 kts 221°
2026-05-07 19:18 37.41133 14.92690 26757 ft 417 kts 221°
2026-05-07 19:19 37.38882 14.90485 26496 ft 403 kts 222°
2026-05-07 19:19 37.36721 14.88366 26241 ft 391 kts 222°
2026-05-07 19:19 37.34617 14.86303 25980 ft 377 kts 222°
2026-05-07 19:19 37.32606 14.84337 25711 ft 352 kts 222°
2026-05-07 19:20 37.30741 14.82513 25449 ft 331 kts 223°
2026-05-07 19:20 37.28991 14.80801 25189 ft 311 kts 223°
2026-05-07 19:20 37.27327 14.79173 24924 ft 293 kts 223°
2026-05-07 19:20 37.25764 14.77647 24661 ft 277 kts 223°
2026-05-07 19:21 37.24265 14.76177 24435 ft 277 kts 223°
2026-05-07 19:21 37.22737 14.74681 24044 ft 279 kts 223°
2026-05-07 19:21 37.21205 14.73188 23582 ft 280 kts 223°
2026-05-07 19:21 37.19671 14.71697 23164 ft 279 kts 223°
2026-05-07 19:22 37.18127 14.70194 22611 ft 285 kts 223°
2026-05-07 19:22 37.16509 14.68612 22157 ft 307 kts 223°
2026-05-07 19:22 37.14813 14.66964 21575 ft 310 kts 223°
2026-05-07 19:22 37.13118 14.65323 21114 ft 309 kts 223°
2026-05-07 19:23 37.11439 14.63697 20655 ft 309 kts 223°
2026-05-07 19:23 37.09766 14.62078 20220 ft 307 kts 223°
2026-05-07 19:23 37.08084 14.60449 19779 ft 305 kts 223°
2026-05-07 19:23 37.06424 14.58842 19353 ft 303 kts 223°
2026-05-07 19:24 37.04759 14.57232 18990 ft 298 kts 223°
2026-05-07 19:24 37.03160 14.55686 18882 ft 286 kts 224°
2026-05-07 19:24 37.01606 14.54181 18777 ft 280 kts 224°
2026-05-07 19:24 37.00075 14.52696 18666 ft 281 kts 224°
2026-05-07 19:25 36.98533 14.51201 18575 ft 280 kts 224°
2026-05-07 19:25 36.96989 14.49708 18504 ft 279 kts 224°
2026-05-07 19:25 36.95464 14.48233 18437 ft 279 kts 224°
2026-05-07 19:25 36.93917 14.46740 18372 ft 278 kts 224°
2026-05-07 19:26 36.92406 14.45282 18333 ft 278 kts 224°
2026-05-07 19:26 36.90877 14.43808 18299 ft 278 kts 224°
2026-05-07 19:26 36.89383 14.42371 18276 ft 277 kts 224°
2026-05-07 19:26 36.87827 14.40902 18253 ft 278 kts 221°
2026-05-07 19:27 36.86117 14.39718 18215 ft 285 kts 211°
2026-05-07 19:27 36.84217 14.38941 17880 ft 295 kts 201°
2026-05-07 19:27 36.82220 14.38454 17516 ft 293 kts 199°
2026-05-07 19:27 36.80233 14.38007 17180 ft 290 kts 199°
2026-05-07 19:28 36.78270 14.37566 16842 ft 284 kts 199°
2026-05-07 19:28 36.76390 14.37146 16526 ft 269 kts 200°
2026-05-07 19:28 36.74588 14.36740 16232 ft 257 kts 200°
2026-05-07 19:28 36.72862 14.36344 15945 ft 251 kts 200°
2026-05-07 19:29 36.71178 14.35958 15675 ft 241 kts 200°
2026-05-07 19:29 36.69558 14.35588 15377 ft 232 kts 200°
2026-05-07 19:29 36.68022 14.35237 15105 ft 222 kts 201°
2026-05-07 19:29 36.66542 14.34897 14861 ft 211 kts 201°
2026-05-07 19:30 36.65130 14.34566 14600 ft 202 kts 201°
2026-05-07 19:30 36.63792 14.34253 14364 ft 192 kts 201°
2026-05-07 19:30 36.62518 14.33959 14142 ft 182 kts 201°
2026-05-07 19:30 36.61313 14.33681 13926 ft 174 kts 202°
2026-05-07 19:31 36.60142 14.33409 13713 ft 170 kts 202°
2026-05-07 19:31 36.58998 14.33142 13507 ft 168 kts 202°
2026-05-07 19:31 36.57858 14.32878 13308 ft 167 kts 202°
2026-05-07 19:31 36.56717 14.32615 13111 ft 166 kts 201°
2026-05-07 19:32 36.55570 14.32351 12907 ft 166 kts 201°
2026-05-07 19:32 36.54437 14.32092 12711 ft 165 kts 201°
2026-05-07 19:32 36.53321 14.31837 12512 ft 165 kts 201°
2026-05-07 19:32 36.52182 14.31577 12321 ft 164 kts 201°
2026-05-07 19:33 36.51073 14.31325 12128 ft 163 kts 200°
2026-05-07 19:33 36.49960 14.31071 11924 ft 163 kts 200°
2026-05-07 19:33 36.48856 14.30819 11726 ft 164 kts 200°
2026-05-07 19:33 36.47734 14.30564 11512 ft 163 kts 200°
2026-05-07 19:34 36.46616 14.30310 11311 ft 162 kts 200°
2026-05-07 19:34 36.45517 14.30059 11109 ft 162 kts 200°
2026-05-07 19:34 36.44395 14.29803 10902 ft 162 kts 200°
2026-05-07 19:34 36.43297 14.29552 10694 ft 161 kts 200°
2026-05-07 19:35 36.42189 14.29298 10492 ft 161 kts 199°
2026-05-07 19:35 36.41102 14.29051 10206 ft 163 kts 199°
2026-05-07 19:35 36.39970 14.28789 9657 ft 171 kts 199°
2026-05-07 19:35 36.38785 14.28518 9199 ft 173 kts 198°
2026-05-07 19:36 36.37623 14.28256 8816 ft 172 kts 198°
2026-05-07 19:36 36.36445 14.27991 8427 ft 170 kts 198°
2026-05-07 19:36 36.35295 14.27733 8044 ft 169 kts 198°
2026-05-07 19:36 36.34145 14.27473 7662 ft 168 kts 198°
2026-05-07 19:37 36.32995 14.27213 7282 ft 167 kts 198°
2026-05-07 19:37 36.31869 14.26960 6913 ft 166 kts 198°
2026-05-07 19:37 36.30747 14.26703 6541 ft 165 kts 198°
2026-05-07 19:37 36.29611 14.26446 6167 ft 164 kts 198°
2026-05-07 19:38 36.28505 14.26193 5800 ft 163 kts 197°
2026-05-07 19:38 36.27398 14.25942 5436 ft 162 kts 197°
2026-05-07 19:38 36.26297 14.25692 5078 ft 161 kts 197°
2026-05-07 19:38 36.25190 14.25441 4718 ft 160 kts 197°
2026-05-07 19:39 36.24102 14.25195 4368 ft 159 kts 196°
2026-05-07 19:39 36.23027 14.24952 4024 ft 158 kts 196°
2026-05-07 19:39 36.21936 14.24704 3652 ft 159 kts 196°
2026-05-07 19:39 36.20866 14.24462 3617 ft 160 kts 195°
2026-05-07 19:40 36.19764 14.24212 3586 ft 160 kts 195°
2026-05-07 19:40 36.18657 14.23966 3584 ft 160 kts 195°
2026-05-07 19:40 36.17562 14.23719 3581 ft 160 kts 195°
2026-05-07 19:40 36.16475 14.23473 3581 ft 160 kts 195°
2026-05-07 19:41 36.15363 14.23222 3580 ft 160 kts 195°
2026-05-07 19:41 36.14281 14.22978 3575 ft 158 kts 195°
2026-05-07 19:41 36.13200 14.22736 3578 ft 158 kts 195°
2026-05-07 19:41 36.12110 14.22489 3581 ft 158 kts 196°
2026-05-07 19:42 36.11033 14.22248 3579 ft 158 kts 196°
2026-05-07 19:42 36.09955 14.22004 3580 ft 158 kts 196°
2026-05-07 19:42 36.08870 14.21757 3580 ft 158 kts 196°
2026-05-07 19:42 36.07779 14.21741 3552 ft 162 kts 165°
2026-05-07 19:43 36.06781 14.22328 3575 ft 160 kts 155°
2026-05-07 19:43 36.05871 14.23097 3580 ft 162 kts 146°
2026-05-07 19:43 36.05012 14.24025 3581 ft 163 kts 140°
2026-05-07 19:43 36.04223 14.24997 3580 ft 163 kts 139°
2026-05-07 19:44 36.03421 14.25991 3582 ft 163 kts 139°
2026-05-07 19:44 36.02620 14.26980 3583 ft 163 kts 139°
2026-05-07 19:44 36.01812 14.27975 3581 ft 163 kts 139°
2026-05-07 19:44 36.01014 14.28958 3581 ft 163 kts 139°
2026-05-07 19:45 36.00212 14.29944 3581 ft 163 kts 139°
2026-05-07 19:45 35.99404 14.30937 3581 ft 163 kts 140°
2026-05-07 19:45 35.98602 14.31922 3581 ft 163 kts 140°
2026-05-07 19:45 35.97812 14.32892 3570 ft 164 kts 140°
2026-05-07 19:46 35.97035 14.33848 3372 ft 163 kts 139°
2026-05-07 19:46 35.96249 14.34813 3171 ft 162 kts 139°
2026-05-07 19:46 35.95461 14.35782 2967 ft 162 kts 139°
2026-05-07 19:46 35.94680 14.36743 2765 ft 161 kts 138°
2026-05-07 19:47 35.93892 14.37713 2552 ft 160 kts 138°
2026-05-07 19:47 35.93105 14.38682 2343 ft 159 kts 137°
2026-05-07 19:47 35.92331 14.39636 2135 ft 158 kts 137°
2026-05-07 19:47 35.91556 14.40592 1929 ft 157 kts 137°
2026-05-07 19:48 35.90787 14.41538 1724 ft 155 kts 134°
2026-05-07 19:48 35.90036 14.42466 1511 ft 152 kts 134°
2026-05-07 19:48 35.89282 14.43390 1311 ft 152 kts 135°
2026-05-07 19:48 35.88540 14.44298 1110 ft 152 kts 134°
2026-05-07 19:49 35.87791 14.45223 907 ft 151 kts 134°
2026-05-07 19:49 35.87053 14.46143 706 ft 151 kts 134°
2026-05-07 19:49 35.86308 14.47063 503 ft 150 kts 134°
2026-05-07 19:49 35.85578 14.47963 306 ft 150 kts 134°
2026-05-07 19:50 35.84901 14.48806 263 ft 122 kts 134°
2026-05-07 19:50 35.84594 14.49184 256 ft 15 kts 134°
2026-05-07 19:50 35.84506 14.49327 252 ft 26 kts 121°
2026-05-07 19:50 35.84461 14.49558 249 ft 32 kts 33°
2026-05-07 19:51 35.84579 14.49533 249 ft 10 kts 324°
2026-05-07 19:51 35.84620 14.49514 249 ft 6 kts
2026-05-07 19:51 35.84669 14.49508 249 ft 7 kts 347°
2026-05-07 19:51 35.84724 14.49501 249 ft 8 kts 358°
2026-05-07 19:52 35.84790 14.49508 248 ft 8 kts 26°
2026-05-07 19:52 35.84804 14.49539 249 ft 0 kts 59°